CZ-6A DEB, 54631

Orbit data source: Space-Track

CZ-6A DEB, 54631 is space debris in SSO originally from a launch on Fri, 11 Nov 2022 UTC launched from the Taiyaun Space Center, China (TSC). Debris objects in space refer to the collection of defunct objects orbiting the Earth. Examples of debris include non-operational satellites, rocket bodies, and fragments generated from explosions, collisions, or faulty payload assembly.

Loading next visibility...
Identifier
54631, 2022-151PH
Orbit
SSO
Country
Flag of CNCN / PRC
Related business
Manufacturer
SAST
Mission
Spacecraft
Bus & Motor
Unknown
Mass
Unknown
Launch date (UTC)
2022-11-11 (4 years ago)
Launch vehicle
Unknown
Launch site
Taiyaun Space Center, China (TSC)
Object type
Payload
Rocket body
Debris
Shape & HBR
Unknown shape, 0.1 m
Radar Cross Section
Medium (>0.1 m² and <1 m²)

Expand to show TLE details & history
Last TLE update: 2 days ago

TLE from 2 days ago
0 CZ-6A DEB
1 54631U 22151PH  26171.12834327  .00007078  00000-0  12510-2 0  9990
2 54631  98.6254 230.5974 0071018 297.0232  62.3732 14.66086844189218
Epoch: 2026-06-20T03:04Z
TLE epoch observation values (Epoch: 2026-06-20T03:04:48.858Z)
Latitude
-0.00009°
Longitude
-83.95357°
Altitude
653.621 km
Speed
7.543 km/s
True Right ascension
15h 22m 23s
True Declination
0° 00' 00"
Sunlit
Object was in full shadow at epoch
Visualization orbit readout
Latitude
Unknown
Longitude
Unknown
Altitude
Unknown
Speed
Unknown
Apparent Right ascension
Unknown
Apparent Declination
Unknown
Sunlit
N/A
Visualization observer readout
Local Sidereal Time
21:54:58
Azimuth
Unknown
Elevation
Unknown
Doppler factor
Unknown
Orbital elements
Apogee altitude
720.74 km
Perigee altitude
620.622 km
Semi-major axis
7,048.818 km
Eccentricity
0.0071
Inclination
98.6254°
RAAN
230.5974°
Arg. of periapsis
297.0232°
True anomaly
63.09718°
Mean anomaly
62.3732°
Eccentric anomaly
62.73489°
Mean motion
3.66749 °/min
Orbital period
98.16 mins
BSTAR
0.001251
Loading maneuver chart data...
Computing Atmospheric mass density...
Loading historical data...
Loading historical data...
Loading historical data...
Loading historical data...
Loading historical data...
Loading historical data...
Loading historical data...

Documentation

Showing up to 5 results
|